Skip Page Navigation
NASA JPL Caltech
NASA Logo - Jet Propulsion Laboratory + View the NASA Portal
+ Center for Near-Earth Object Studies
JPL Home Earth Solar System Stars & Galaxies Technology
JPL Solar System Dynamics
BODIES ORBITS EPHEMERIDES TOOLS PHYSICAL DATA DISCOVERY FAQ SITE MAP
JPL Small-Body Database Browser
Search: [ help ]  
332283 (2006 SX355)
Classification: Main-belt Asteroid          SPK-ID: 2332283
Ephemeris | Orbit Diagram | Orbital Elements | Mission Design | Physical Parameters | Discovery Circumstances | Close-Approach Data ]

[ show orbit diagram ]
Orbital Elements at Epoch 2459000.5 (2020-May-31.0) TDB
Reference: JPL 10 (heliocentric ecliptic J2000)
 Element Value Uncertainty (1-sigma)   Units 
e .1658819735983196 5.128e-08  
a 2.229618522116619 1.6064e-08 au
q 1.859765001296546 1.2072e-07 au
i 4.628747765433545 5.221e-06 deg
node 154.3740617642595 5.1044e-05 deg
peri 193.9607757894807 5.4105e-05 deg
M 61.18589956569889 1.425e-05 deg
tp 2458793.822537461924
(2019-Nov-06.32253746)
4.8859e-05 TDB
period 1216.029952028659
3.33
1.3142e-05
3.598e-08
d
yr
n .296045339507818 3.1994e-09 deg/d
Q 2.599472042936692 1.8729e-08 au
  Orbit Determination Parameters
   # obs. used (total)      213  
   data-arc span      5311 days (14.54 yr)  
   first obs. used      2005-04-12  
   last obs. used      2019-10-27  
   planetary ephem.      DE431  
   SB-pert. ephem.      SB431-N16  
   condition code      0  
   norm. resid. RMS      .55976  
   source      ORB  
   producer      Otto Matic  
   solution date      2019-Nov-08 09:45:02  

Additional Information
 Earth MOID = .853392 au 
 Jupiter MOID = 2.81254 au 
 T_jup = 3.621 
[ show covariance matrix ]

Ephemeris | Orbit Diagram | Orbital Elements | Mission Design | Physical Parameters | Discovery Circumstances | Close-Approach Data ]

Physical Parameter Table
Parameter Symbol Value Units Sigma Reference Notes
absolute magnitude H 17.4   n/a MPO494756  

332283 (2006 SX355)          Discovered 2006-Sep-30 by CSS at Catalina
Reference: 20120703/Numbers.arcLast Updated: 2012-07-09

[ show close-approach data ]
Ephemeris | Orbit Diagram | Orbital Elements | Mission Design | Physical Parameters | Discovery Circumstances | Close-Approach Data ]
ABOUT SSD CREDITS/AWARDS PRIVACY/COPYRIGHT GLOSSARY LINKS
FirstGov 2020-Sep-18 21:49 UT
(server date/time)  
NASA Home Page
Site Manager:   Ryan S. Park
Webmaster  Alan B. Chamberlin